Location: Groß Eilstorf
(52.8200°N, 9.4552°E)
Time: 15:15:30
(UTC+00:00)

Cosmos 1470 - Pass Details

Date: 15 May 2026
Orbit: 420 x 431 km, 82.5° (Epoch: 10 June)

Event Time Altitude Azimuth Distance (km) Brightness Sun altitude
Rises 21:10:48 0° 1° (N) 2,391 7.2 -13.0°
Reaches altitude 10° 21:13:19 10° 20° (NNE) 1,518 5.6 -13.2°
Maximum altitude 21:15:41 18° 67° (ENE) 1,107 4.3 -13.4°
Enters shadow 21:17:11 14° 100° (E) 1,280 4.3 -13.5°
